Theta_e
295 294 294 293 293 293 292 292 292 292 292 292 292 292 292 292 293 292 292 292 292 292 292 292 292 293 293 292 292 291 292 296 295 294 289 288 288 288 288 288 289 290 292
293 293 293 293 292 292 291 291 291 291 291 291 291 291 291 291 291 290 290 290 290 290 290 289 290 292 290 290 289 288 289 291 293 292 286 285 286 287 287 286 287 286 286
291 291 291 290 289 289 289 289 289 289 289 289 289 288 288 289 289 289 289 289 289 288 288 288 289 288 287 286 286 285 285 287 287 286 284 283 284 285 283 284 285 282 284
290 289 288 287 287 287 287 287 287 287 286 286 287 287 287 287 287 287 288 287 286 287 287 286 286 286 285 284 284 283 283 282 282 283 281 280 282 282 282 280 281 281 280
288 288 287 286 286 285 284 284 284 284 284 285 285 285 285 286 287 286 286 284 284 284 284 284 285 285 286 286 283 281 281 281 281 281 279 278 278 279 279 279 279 278 279
286 284 284 283 282 282 282 282 282 282 282 283 282 282 282 285 288 289 288 285 285 283 283 283 282 282 283 287 287 286 284 280 280 280 281 280 279 279 280 278 278 275 274
282 281 280 280 280 280 280 280 280 280 281 281 281 281 281 282 286 287 288 285 284 283 283 283 283 283 281 281 283 286 285 285 285 281 281 281 280 279 280 278 277 276 277
279 279 279 278 278 279 279 279 279 279 279 279 280 280 280 281 285 286 286 283 282 282 282 282 282 282 280 280 279 279 277 276 277 277 277 280 281 280 281 280 279 276 272
277 277 277 277 277 277 277 277 278 278 278 279 280 280 280 280 284 285 284 282 282 281 282 282 283 282 283 285 279 277 275 277 279 280 280 281 282 285 283 279 273 272 268
275 275 275 275 275 275 276 276 277 277 278 279 280 280 281 280 283 284 284 282 281 281 281 282 284 284 285 285 281 276 274 275 276 276 274 273 273 277 278 277 275 273 270
273 273 273 273 273 275 275 275 275 275 276 275 276 277 277 278 279 282 283 281 281 280 280 280 281 284 285 286 285 280 276 276 277 270 269 269 269 269 269 270 271 275 271
269 269 269 269 272 274 271 272 273 273 273 273 273 274 276 277 279 280 282 282 282 280 278 278 279 283 284 285 284 285 282 277 269 269 268 267 267 266 266 267 268 269 270
265 264 265 268 271 271 271 272 272 272 271 272 273 273 273 275 276 279 280 281 282 280 280 280 283 283 283 283 284 285 281 270 268 268 267 267 267 266 266 266 266 266 266
261 264 267 269 269 270 271 272 271 270 270 272 273 272 273 274 275 276 278 278 280 280 280 277 279 282 282 276 272 279 272 270 269 268 267 266 266 265 264 265 264 264 262
264 265 266 267 266 268 270 269 271 271 272 272 273 273 272 272 274 279 279 277 279 280 281 277 273 274 267 266 265 268 269 269 268 267 265 264 264 264 264 265 264 263 262
263 264 264 265 265 267 266 266 271 273 275 276 276 275 274 277 278 278 279 279 279 279 276 273 272 270 267 266 266 266 268 267 266 266 265 264 264 263 263 263 263 263 262
257 260 261 263 263 263 264 264 263 268 273 273 274 275 275 276 276 277 277 277 276 276 271 271 270 266 265 266 265 265 265 266 266 265 265 264 263 262 262 261 262 262 261
252 257 258 259 259 259 261 263 264 264 263 265 269 272 273 274 275 275 275 271 265 267 265 262 263 266 266 263 264 264 264 264 264 264 264 263 263 261 260 260 261 260 260
254 255 257 258 257 259 260 261 261 262 263 263 264 267 267 271 273 272 271 262 263 264 265 267 268 267 262 260 261 263 264 263 263 263 262 262 261 261 260 260 260 260 259
251 256 258 255 256 258 259 258 261 260 261 261 262 262 263 267 262 259 261 258 261 263 264 265 266 266 264 262 262 260 262 262 261 261 260 260 260 260 259 259 259 258 257
251 253 257 255 254 256 257 258 258 256 259 261 261 261 269 265 262 263 260 259 261 262 263 264 264 264 264 262 261 261 260 261 260 260 259 259 259 258 259 259 257 256 257
251 252 254 255 256 256 256 255 256 256 258 259 260 260 267 260 261 261 261 259 262 262 263 263 263 262 262 262 261 261 260 260 259 259 258 258 258 257 257 257 256 256 255
253 253 253 253 252 255 254 253 254 254 257 257 257 258 258 258 259 259 258 260 262 261 262 262 262 261 261 262 262 262 260 259 260 259 258 257 257 256 256 256 255 254 253
251 251 252 253 251 253 253 255 253 255 255 256 256 256 257 258 257 258 258 258 258 260 261 260 260 260 260 260 260 260 260 260 260 259 258 257 256 256 255 254 254 253 253
251 251 252 253 252 253 253 253 254 253 253 255 256 256 257 257 257 258 259 258 257 258 258 259 259 259 259 259 259 259 259 262 259 259 257 257 255 254 254 253 252 252 252
252 251 251 250 252 251 251 253 255 255 254 256 256 256 257 257 257 258 259 258 258 257 257 257 257 257 257 257 257 258 258 259 257 257 256 255 254 253 252 252 252 251 251
Wind_Speed
6 6 6 6 6 5 5 5 5 5 6 6 6 6 6 7 6 6 6 7 7 7 5 6 7 6 5 4 4 4 4 5 8 3 2 5 9 9 8 6 4 4 4
6 6 6 6 7 7 7 7 7 7 6 6 6 6 7 6 6 6 7 6 7 8 7 7 8 6 6 5 4 5 5 5 5 11 4 4 6 9 8 9 6 5 3
6 6 6 6 6 6 6 6 6 6 6 7 6 6 7 7 7 7 7 8 7 8 7 7 8 6 7 4 5 5 4 5 5 4 4 2 3 6 6 7 7 4 4
6 6 7 8 8 9 8 9 9 8 7 8 7 6 7 8 8 8 7 7 7 8 7 7 7 7 7 6 5 6 5 4 4 4 3 2 1 5 8 8 6 4 5
7 7 7 7 8 8 8 9 9 8 8 7 8 8 7 8 6 8 8 8 8 10 7 7 7 8 10 9 4 5 5 4 4 4 3 3 3 4 12 7 8 6 4
6 6 6 7 7 7 7 9 8 8 9 9 9 8 8 8 17 17 15 10 10 10 11 9 7 8 9 12 12 13 9 6 8 6 6 8 9 7 9 10 9 8 6
6 6 7 7 8 8 8 8 9 9 9 9 9 9 10 9 19 21 19 10 10 10 11 11 10 7 7 7 12 15 13 13 12 5 11 10 7 9 10 13 13 13 8
6 6 7 8 8 8 9 9 9 8 10 10 10 9 9 9 20 21 20 10 9 10 10 10 11 12 8 8 7 6 5 3 3 4 6 9 8 9 13 13 12 7 5
8 8 8 8 9 9 9 9 9 9 9 9 9 10 10 10 20 20 18 11 10 10 10 8 9 11 14 16 7 7 5 6 5 5 7 8 8 17 14 8 8 10 3
8 9 8 7 8 8 8 9 9 8 9 9 9 9 10 9 14 20 18 10 13 12 13 11 14 14 19 18 11 9 8 9 5 2 4 8 12 7 3 3 8 11 6
6 7 7 7 8 7 7 7 7 8 8 8 9 7 7 8 9 20 21 12 9 10 9 10 8 17 23 23 20 9 12 5 8 5 4 4 4 5 5 6 5 3 6
6 6 7 7 6 6 6 6 7 6 8 8 9 7 6 7 13 17 22 21 20 11 10 8 10 22 23 25 19 19 19 9 6 5 4 3 3 3 3 4 6 7 7
5 5 5 6 5 6 7 9 7 7 7 8 8 9 9 8 8 19 21 22 21 15 9 15 25 25 25 19 21 23 12 8 7 5 4 3 3 5 4 3 6 9 11
5 5 5 6 8 6 5 6 6 6 7 8 9 10 10 9 9 10 10 10 17 12 15 9 13 21 18 5 3 6 6 6 7 6 5 6 5 4 3 2 3 5 6
3 4 5 5 5 7 6 6 6 6 8 9 8 9 10 11 11 22 21 14 13 16 16 6 5 5 1 1 3 3 4 6 6 4 6 5 5 5 4 3 3 3 2
4 3 4 4 4 5 5 7 10 13 16 18 19 16 10 20 26 28 28 28 28 29 12 10 8 5 3 2 2 3 3 5 5 5 5 5 5 5 5 3 1 1 3
3 4 3 4 4 5 6 6 9 9 15 16 18 21 22 23 25 26 28 29 26 23 10 10 8 3 2 3 2 2 1 2 5 4 5 5 5 5 5 4 3 3 3
3 5 4 4 3 3 4 6 5 7 10 9 12 18 19 23 23 25 25 19 12 12 7 5 2 2 3 4 4 4 4 4 3 4 4 5 5 6 6 5 4 4 5
3 3 4 3 3 4 4 4 4 5 7 8 8 11 13 22 18 21 20 5 9 9 8 6 5 3 0 2 2 2 4 4 4 4 4 4 5 5 5 5 5 6 6
3 6 4 3 3 4 4 4 5 4 7 7 7 8 10 11 6 5 6 4 7 7 8 6 4 3 2 1 2 2 3 4 4 3 3 3 3 4 4 5 4 5 3
3 3 5 3 3 4 4 5 4 4 6 6 7 6 21 10 9 8 6 5 6 7 7 7 5 3 2 2 2 2 2 3 3 4 4 4 4 4 4 4 4 4 4
3 3 3 3 3 4 4 4 4 4 5 7 8 8 21 6 6 7 6 5 6 5 5 6 5 3 3 2 0 2 2 3 3 4 4 4 4 4 4 4 5 5 5
2 3 3 3 3 5 4 4 4 4 6 6 6 7 7 7 7 6 6 6 6 6 4 5 5 4 3 3 2 0 2 3 3 4 5 5 4 4 4 5 6 5 4
2 3 3 3 3 3 4 5 4 6 6 7 7 6 7 7 6 7 6 6 5 6 5 4 4 5 3 3 2 2 1 2 3 4 7 6 5 6 4 5 5 6 5
2 3 2 3 3 4 4 5 5 5 5 6 7 6 7 7 7 7 7 6 5 6 6 5 4 5 5 5 3 2 3 2 3 5 4 5 6 7 5 5 5 5 5
2 2 3 3 4 4 4 5 6 6 6 7 7 7 8 8 8 8 8 7 6 5 6 4 4 6 6 4 4 3 4 3 4 5 5 5 6 5 5 5 7 5 5
Wind_Direction
33 27 29 16 12 13 14 352 341 329 331 327 317 312 310 309 306 298 288 288 281 282 278 279 278 272 263 251 239 232 230 229 258 254 170 175 191 193 192 191 179 197 201
33 33 31 25 18 18 11 0 354 346 341 330 323 314 306 299 295 289 285 282 279 287 286 279 281 286 273 263 246 241 240 222 238 262 187 186 202 199 189 185 174 186 183
41 37 30 23 14 10 0 351 348 342 336 334 330 316 308 301 295 284 278 282 277 271 272 270 275 264 269 261 257 249 239 243 244 237 242 160 171 176 171 188 182 164 173
32 30 27 17 8 1 356 357 353 346 335 335 326 313 308 308 305 298 293 289 279 280 265 261 262 258 260 258 258 252 252 243 234 230 224 199 190 167 169 173 184 187 177
23 24 19 5 359 354 353 345 337 334 331 324 325 325 319 319 312 314 304 294 287 289 275 267 270 258 247 240 231 242 243 235 228 233 208 198 190 165 185 173 191 173 171
22 29 10 360 347 342 338 331 328 331 333 333 329 322 320 322 322 320 315 307 301 297 299 298 288 280 256 248 246 250 231 226 233 220 232 226 214 199 183 177 165 170 201
36 15 4 354 345 341 332 334 337 334 328 329 326 327 326 321 329 329 325 315 307 300 295 297 297 289 249 246 257 260 258 257 248 239 242 228 218 198 183 178 190 187 195
30 9 360 352 341 338 337 338 333 332 331 326 325 322 323 322 329 328 323 311 304 298 290 282 284 292 251 237 242 237 229 255 274 275 266 269 240 189 196 194 190 157 76
20 5 351 343 338 339 339 337 330 329 325 328 330 329 327 323 327 331 330 320 310 308 305 285 272 284 273 256 236 231 225 237 247 286 275 277 253 217 198 153 168 167 167
5 347 333 332 333 328 329 333 326 325 328 332 329 332 325 315 320 332 332 323 317 318 316 310 300 277 271 258 244 210 222 232 189 142 39 35 20 49 62 250 167 185 155
345 329 331 333 323 309 316 316 320 326 330 323 321 317 304 313 318 326 327 321 310 305 311 314 313 295 286 273 251 215 223 186 170 119 109 84 53 34 24 21 31 219 165
346 331 322 307 310 325 317 314 322 326 329 324 321 318 314 309 316 320 324 320 312 309 302 302 302 307 288 278 268 257 222 166 133 143 144 130 109 81 46 46 51 60 65
341 316 302 305 321 336 341 336 333 335 332 328 327 323 323 319 309 313 314 315 314 304 292 291 308 309 301 282 273 266 194 150 152 157 152 129 116 109 93 71 74 77 68
313 310 319 343 344 344 336 333 330 328 327 322 323 320 316 320 319 314 313 311 306 290 287 284 291 297 297 341 355 297 138 157 154 153 140 114 118 126 132 130 112 102 90
324 333 338 336 331 327 328 326 325 312 312 321 318 318 322 323 316 326 329 324 322 324 321 310 300 281 299 5 30 58 114 130 133 121 130 130 143 146 140 151 147 169 141
319 322 324 315 318 320 316 314 316 319 323 325 327 328 322 318 328 329 327 328 326 317 306 306 286 245 193 158 132 119 108 115 122 129 134 145 155 153 138 123 107 160 141
272 302 304 308 310 321 320 316 320 324 325 327 330 333 332 332 331 337 338 332 330 326 300 286 272 179 133 126 120 114 95 102 121 132 144 150 149 141 146 141 154 131 114
267 273 268 272 280 292 296 302 299 314 321 322 328 329 335 334 332 338 342 344 335 338 322 304 283 151 150 151 152 147 136 140 138 144 146 150 151 150 151 161 155 146 137
272 272 265 278 274 272 283 283 288 298 307 308 316 326 330 327 331 343 347 343 326 325 326 327 330 322 330 121 122 135 149 156 153 146 140 145 147 150 154 153 150 147 132
257 269 269 272 293 298 289 293 302 299 309 303 313 316 319 314 348 324 328 318 325 323 324 325 334 332 328 60 97 114 136 143 145 136 133 133 136 139 143 142 141 138 124
251 280 278 296 287 278 276 277 275 279 287 297 301 298 319 340 322 318 314 308 316 320 322 321 322 327 344 20 71 98 116 141 142 133 137 131 130 124 115 113 116 113 122
231 255 271 271 280 291 280 273 280 278 292 301 304 307 323 318 306 309 312 300 310 308 316 319 318 322 319 298 269 144 153 154 149 146 142 137 135 130 133 128 130 134 140
239 279 294 286 272 283 289 285 288 285 294 291 297 304 312 306 303 303 303 304 310 313 320 323 321 316 326 322 318 251 186 182 172 152 146 145 148 148 148 146 145 142 144
245 265 263 276 284 288 294 296 285 284 288 300 301 297 298 297 293 298 297 302 303 310 310 311 312 314 311 317 331 338 2 124 144 155 147 149 151 151 144 142 145 141 145
270 276 282 286 289 294 299 291 284 286 288 292 300 301 302 298 300 300 300 298 293 305 306 308 306 313 311 303 296 299 289 216 133 139 135 143 154 158 154 147 146 140 128
287 289 274 288 295 293 288 288 292 295 293 298 299 297 297 302 302 302 303 300 297 290 291 290 289 293 299 298 290 264 251 183 164 158 140 143 147 146 144 143 146 146 141